Time,TemperatureF,DewpointF,PressureIn,WindDirection,WindDirectionDegrees,WindSpeedMPH,WindSpeedGustMPH,Humidity,HourlyPrecipIn,Conditions,Clouds,dailyrainin,SoftwareType,DateUTC
2013-09-09 00:06:00,78.0,76.0,29.98,NE,46,0.0,0.0,94,0.00,,,0.21,weatherlink.com 1.10,2013-09-09 04:06:00,
2013-09-09 00:21:00,77.7,76.0,29.98,NE,46,0.0,1.0,94,0.00,,,0.21,weatherlink.com 1.10,2013-09-09 04:21:00,
2013-09-09 00:36:00,77.6,76.0,29.97,NE,46,0.0,1.0,95,0.00,,,0.21,weatherlink.com 1.10,2013-09-09 04:36:00,
2013-09-09 00:51:00,77.6,76.0,29.98,NE,46,0.0,0.0,95,0.00,,,0.21,weatherlink.com 1.10,2013-09-09 04:51:00,
2013-09-09 01:06:00,77.0,74.0,29.98,ESE,109,4.0,11.0,89,0.00,,,0.21,weatherlink.com 1.10,2013-09-09 05:06:00,
2013-09-09 01:21:00,77.1,72.0,29.97,ESE,123,0.0,6.0,83,0.00,,,0.21,weatherlink.com 1.10,2013-09-09 05:21:00,
2013-09-09 01:36:00,76.7,72.0,29.97,South,171,0.0,4.0,85,0.00,,,0.21,weatherlink.com 1.10,2013-09-09 05:36:00,
2013-09-09 01:51:00,76.0,72.0,29.96,South,171,0.0,0.0,87,0.00,,,0.21,weatherlink.com 1.10,2013-09-09 05:51:00,
2013-09-09 02:06:00,75.6,73.0,29.96,South,171,0.0,1.0,90,0.00,,,0.21,weatherlink.com 1.10,2013-09-09 06:06:00,
2013-09-09 02:21:00,75.2,72.0,29.95,WSW,245,0.0,2.0,89,0.00,,,0.21,weatherlink.com 1.10,2013-09-09 06:21:00,
2013-09-09 02:36:00,75.1,72.0,29.95,WSW,245,0.0,1.0,89,0.00,,,0.21,weatherlink.com 1.10,2013-09-09 06:36:00,
2013-09-09 02:51:00,75.1,72.0,29.94,WSW,245,0.0,0.0,91,0.00,,,0.21,weatherlink.com 1.10,2013-09-09 06:51:00,
2013-09-09 03:06:00,74.6,73.0,29.94,WSW,245,0.0,0.0,93,0.00,,,0.21,weatherlink.com 1.10,2013-09-09 07:06:00,
2013-09-09 03:21:00,74.6,73.0,29.94,WSW,245,0.0,0.0,93,0.00,,,0.21,weatherlink.com 1.10,2013-09-09 07:21:00,
2013-09-09 03:36:00,74.6,73.0,29.94,WSW,245,0.0,0.0,94,0.00,,,0.21,weatherlink.com 1.10,2013-09-09 07:36:00,
2013-09-09 03:51:00,74.7,73.0,29.93,WSW,245,0.0,0.0,94,0.00,,,0.21,weatherlink.com 1.10,2013-09-09 07:51:00,
2013-09-09 04:06:00,74.9,73.0,29.93,WSW,245,0.0,0.0,95,0.00,,,0.21,weatherlink.com 1.10,2013-09-09 08:06:00,
2013-09-09 04:21:00,74.4,73.0,29.93,WSW,245,0.0,2.0,95,0.00,,,0.21,weatherlink.com 1.10,2013-09-09 08:21:00,
2013-09-09 04:36:00,74.6,73.0,29.93,WSW,245,0.0,1.0,94,0.00,,,0.21,weatherlink.com 1.10,2013-09-09 08:36:00,
2013-09-09 04:51:00,74.6,73.0,29.94,WSW,245,0.0,0.0,94,0.00,,,0.21,weatherlink.com 1.10,2013-09-09 08:51:00,
2013-09-09 05:07:00,74.5,73.0,29.94,WSW,245,0.0,0.0,94,0.00,,,0.21,weatherlink.com 1.10,2013-09-09 09:07:00,
2013-09-09 05:21:00,74.5,73.0,29.94,WSW,245,0.0,0.0,95,0.00,,,0.21,weatherlink.com 1.10,2013-09-09 09:21:00,
2013-09-09 05:36:00,74.4,73.0,29.94,WSW,245,0.0,1.0,95,0.00,,,0.21,weatherlink.com 1.10,2013-09-09 09:36:00,
2013-09-09 05:51:00,74.4,73.0,29.95,WSW,245,0.0,1.0,96,0.00,,,0.21,weatherlink.com 1.10,2013-09-09 09:51:00,
2013-09-09 06:06:00,74.4,73.0,29.96,WSW,245,0.0,1.0,96,0.00,,,0.21,weatherlink.com 1.10,2013-09-09 10:06:00,
2013-09-09 06:21:00,73.9,72.0,29.96,WSW,245,0.0,1.0,95,0.00,,,0.21,weatherlink.com 1.10,2013-09-09 10:21:00,
2013-09-09 06:36:00,74.6,73.0,29.96,WNW,298,0.0,4.0,96,0.00,,,0.21,weatherlink.com 1.10,2013-09-09 10:36:00,
2013-09-09 06:51:00,74.8,74.0,29.96,WNW,298,0.0,0.0,96,0.00,,,0.21,weatherlink.com 1.10,2013-09-09 10:51:00,
2013-09-09 07:06:00,74.9,74.0,29.96,WNW,298,0.0,0.0,96,0.00,,,0.21,weatherlink.com 1.10,2013-09-09 11:06:00,
2013-09-09 07:21:00,74.9,74.0,29.97,WNW,298,0.0,0.0,96,0.00,,,0.21,weatherlink.com 1.10,2013-09-09 11:21:00,
2013-09-09 07:36:00,75.2,74.0,29.97,WNW,298,0.0,0.0,97,0.00,,,0.21,weatherlink.com 1.10,2013-09-09 11:36:00,
2013-09-09 07:51:00,76.1,75.0,29.98,WNW,298,0.0,1.0,97,0.00,,,0.21,weatherlink.com 1.10,2013-09-09 11:51:00,
2013-09-09 08:06:00,77.2,76.0,29.98,WNW,298,0.0,0.0,96,0.00,,,0.21,weatherlink.com 1.10,2013-09-09 12:06:00,
2013-09-09 08:21:00,78.3,76.0,29.98,WNW,298,0.0,0.0,93,0.00,,,0.21,weatherlink.com 1.10,2013-09-09 12:21:00,
2013-09-09 08:36:00,79.6,76.0,29.99,WNW,298,0.0,0.0,89,0.00,,,0.21,weatherlink.com 1.10,2013-09-09 12:36:00,
2013-09-09 08:51:00,80.3,76.0,29.99,WNW,298,0.0,0.0,87,0.00,,,0.21,weatherlink.com 1.10,2013-09-09 12:51:00,
2013-09-09 09:06:00,82.2,77.0,30.00,NE,53,0.0,0.0,84,0.00,,,0.21,weatherlink.com 1.10,2013-09-09 13:06:00,
2013-09-09 09:22:00,83.8,77.0,30.00,ENE,60,7.0,9.0,79,0.00,,,0.21,weatherlink.com 1.10,2013-09-09 13:22:00,
2013-09-09 09:37:00,84.6,76.0,30.00,SE,124,4.0,9.0,76,0.00,,,0.21,weatherlink.com 1.10,2013-09-09 13:37:00,
2013-09-09 09:52:00,85.0,76.0,30.01,East,85,2.0,10.0,74,0.00,,,0.21,weatherlink.com 1.10,2013-09-09 13:52:00,
2013-09-09 10:07:00,85.5,77.0,30.02,ENE,67,4.0,9.0,75,0.00,,,0.21,weatherlink.com 1.10,2013-09-09 14:07:00,
2013-09-09 10:22:00,85.0,77.0,30.02,ENE,71,4.0,6.0,76,0.00,,,0.21,weatherlink.com 1.10,2013-09-09 14:22:00,
2013-09-09 10:37:00,86.0,76.0,30.02,NE,52,5.0,11.0,71,0.00,,,0.21,weatherlink.com 1.10,2013-09-09 14:37:00,
2013-09-09 10:52:00,86.2,76.0,30.02,NE,42,6.0,8.0,71,0.00,,,0.21,weatherlink.com 1.10,2013-09-09 14:52:00,
2013-09-09 11:07:00,88.2,77.0,30.02,ENE,64,4.0,10.0,70,0.00,,,0.21,weatherlink.com 1.10,2013-09-09 15:07:00,
2013-09-09 11:22:00,87.9,76.0,30.02,East,80,2.0,11.0,67,0.00,,,0.21,weatherlink.com 1.10,2013-09-09 15:22:00,
2013-09-09 11:37:00,87.9,75.0,30.03,ENE,63,2.0,11.0,65,0.00,,,0.21,weatherlink.com 1.10,2013-09-09 15:37:00,
2013-09-09 11:52:00,88.3,75.0,30.02,ENE,69,3.0,12.0,65,0.00,,,0.21,weatherlink.com 1.10,2013-09-09 15:52:00,
2013-09-09 12:07:00,88.5,75.0,30.02,NE,40,6.0,13.0,65,0.00,,,0.21,weatherlink.com 1.10,2013-09-09 16:07:00,
2013-09-09 12:22:00,88.5,76.0,30.02,NNE,24,10.0,10.0,67,0.00,,,0.21,weatherlink.com 1.10,2013-09-09 16:22:00,
2013-09-09 12:37:00,88.4,77.0,30.02,NE,46,7.0,15.0,69,0.00,,,0.21,weatherlink.com 1.10,2013-09-09 16:37:00,
2013-09-09 12:52:00,86.2,75.0,30.02,NE,45,9.0,13.0,70,0.00,,,0.21,weatherlink.com 1.10,2013-09-09 16:52:00,
2013-09-09 13:07:00,86.1,74.0,30.02,NE,38,7.0,15.0,67,0.00,,,0.21,weatherlink.com 1.10,2013-09-09 17:07:00,
2013-09-09 13:22:00,87.0,74.0,30.02,ESE,109,5.0,13.0,66,0.00,,,0.21,weatherlink.com 1.10,2013-09-09 17:22:00,
2013-09-09 13:37:00,87.9,76.0,30.01,NNE,26,4.0,11.0,67,0.00,,,0.21,weatherlink.com 1.10,2013-09-09 17:37:00,
2013-09-09 13:52:00,89.0,76.0,30.00,East,81,5.0,12.0,65,0.00,,,0.21,weatherlink.com 1.10,2013-09-09 17:52:00,
2013-09-09 14:07:00,89.7,76.0,30.00,ENE,78,7.0,13.0,64,0.00,,,0.21,weatherlink.com 1.10,2013-09-09 18:07:00,
2013-09-09 14:22:00,88.3,76.0,30.00,East,95,6.0,14.0,67,0.00,,,0.21,weatherlink.com 1.10,2013-09-09 18:22:00,
2013-09-09 14:37:00,87.9,77.0,29.99,ENE,65,3.0,12.0,71,0.00,,,0.00,weatherlink.com 1.10,2013-09-09 18:37:00,
2013-09-09 14:52:00,88.3,77.0,29.99,ENE,65,12.0,12.0,69,0.00,,,0.00,weatherlink.com 1.10,2013-09-09 18:52:00,
2013-09-09 15:07:00,88.6,76.0,29.98,East,83,8.0,13.0,67,0.00,,,0.00,weatherlink.com 1.10,2013-09-09 19:07:00,
2013-09-09 15:22:00,89.4,77.0,29.99,ENE,66,8.0,13.0,67,0.00,,,0.00,weatherlink.com 1.10,2013-09-09 19:22:00,
2013-09-09 15:37:00,90.1,77.0,29.98,ENE,66,4.0,10.0,65,0.00,,,0.00,weatherlink.com 1.10,2013-09-09 19:37:00,
2013-09-09 15:52:00,89.9,77.0,29.98,ENE,63,8.0,10.0,66,0.00,,,0.00,weatherlink.com 1.10,2013-09-09 19:52:00,
2013-09-09 16:07:00,89.3,76.0,29.97,ENE,70,5.0,13.0,65,0.00,,,0.00,weatherlink.com 1.10,2013-09-09 20:07:00,
2013-09-09 16:22:00,88.1,76.0,29.97,NNE,25,11.0,14.0,67,0.00,,,0.00,weatherlink.com 1.10,2013-09-09 20:22:00,
2013-09-09 16:37:00,87.8,76.0,29.97,ENE,69,8.0,12.0,67,0.00,,,0.00,weatherlink.com 1.10,2013-09-09 20:37:00,
2013-09-09 16:52:00,88.3,76.0,29.98,NNE,32,5.0,11.0,67,0.00,,,0.00,weatherlink.com 1.10,2013-09-09 20:52:00,
2013-09-09 17:07:00,88.1,76.0,29.97,NNE,28,8.0,11.0,68,0.00,,,0.00,weatherlink.com 1.10,2013-09-09 21:07:00,
2013-09-09 17:22:00,88.0,77.0,29.97,NNW,345,7.0,15.0,69,0.00,,,0.00,weatherlink.com 1.10,2013-09-09 21:22:00,
2013-09-09 17:37:00,86.1,75.0,29.98,East,101,2.0,10.0,70,0.00,,,0.00,weatherlink.com 1.10,2013-09-09 21:37:00,
2013-09-09 17:52:00,86.5,76.0,29.97,NE,44,8.0,11.0,70,0.00,,,0.00,weatherlink.com 1.10,2013-09-09 21:52:00,
2013-09-09 18:07:00,86.8,76.0,29.97,NNE,18,3.0,12.0,70,0.00,,,0.00,weatherlink.com 1.10,2013-09-09 22:07:00,
2013-09-09 18:23:00,86.1,76.0,29.97,ENE,74,5.0,14.0,72,0.00,,,0.00,weatherlink.com 1.10,2013-09-09 22:23:00,
2013-09-09 18:38:00,85.5,76.0,29.98,North,5,6.0,10.0,73,0.00,,,0.00,weatherlink.com 1.10,2013-09-09 22:38:00,
2013-09-09 18:53:00,85.2,77.0,29.98,ENE,76,11.0,12.0,75,0.00,,,0.00,weatherlink.com 1.10,2013-09-09 22:53:00,
2013-09-09 19:08:00,84.6,76.0,29.98,ENE,69,3.0,9.0,76,0.00,,,0.00,weatherlink.com 1.10,2013-09-09 23:08:00,
2013-09-09 19:23:00,84.2,76.0,29.99,NE,45,6.0,8.0,76,0.00,,,0.00,weatherlink.com 1.10,2013-09-09 23:23:00,
2013-09-09 19:38:00,83.9,76.0,29.99,ENE,63,0.0,5.0,77,0.00,,,0.00,weatherlink.com 1.10,2013-09-09 23:38:00,
2013-09-09 19:53:00,83.7,75.0,29.99,NE,52,2.0,8.0,76,0.00,,,0.00,weatherlink.com 1.10,2013-09-09 23:53:00,
2013-09-09 20:08:00,82.0,76.0,30.00,NNW,338,5.0,10.0,81,0.00,,,0.00,weatherlink.com 1.10,2013-09-10 00:08:00,
2013-09-09 20:23:00,79.2,75.0,30.01,NW,313,0.0,6.0,87,0.00,,,0.00,weatherlink.com 1.10,2013-09-10 00:23:00,
2013-09-09 20:38:00,78.6,75.0,30.01,NW,313,1.0,3.0,89,0.00,,,0.00,weatherlink.com 1.10,2013-09-10 00:38:00,
2013-09-09 20:53:00,78.8,75.0,30.01,NW,313,0.0,0.0,89,0.00,,,0.00,weatherlink.com 1.10,2013-09-10 00:53:00,
2013-09-09 21:08:00,79.4,76.0,30.01,NW,313,0.0,1.0,89,0.00,,,0.00,weatherlink.com 1.10,2013-09-10 01:08:00,
2013-09-09 21:23:00,80.8,73.0,30.02,NNE,22,2.0,12.0,77,0.00,,,0.00,weatherlink.com 1.10,2013-09-10 01:23:00,
2013-09-09 21:38:00,80.0,73.0,30.02,ENE,73,7.0,15.0,78,0.00,,,0.00,weatherlink.com 1.10,2013-09-10 01:38:00,
2013-09-09 21:53:00,78.9,74.0,30.02,NNE,33,2.0,6.0,86,0.00,,,0.00,weatherlink.com 1.10,2013-09-10 01:53:00,
2013-09-09 22:08:00,78.9,76.0,30.03,NE,49,0.0,4.0,89,0.00,,,0.00,weatherlink.com 1.10,2013-09-10 02:08:00,
2013-09-09 22:23:00,79.1,76.0,30.04,NE,42,2.0,6.0,89,0.00,,,0.00,weatherlink.com 1.10,2013-09-10 02:23:00,
2013-09-09 22:38:00,79.4,75.0,30.04,NE,53,1.0,4.0,87,0.00,,,0.00,weatherlink.com 1.10,2013-09-10 02:38:00,
2013-09-09 22:53:00,79.3,75.0,30.03,ENE,61,0.0,4.0,86,0.00,,,0.00,weatherlink.com 1.10,2013-09-10 02:53:00,
2013-09-09 23:08:00,79.2,75.0,30.02,ENE,61,0.0,4.0,87,0.00,,,0.00,weatherlink.com 1.10,2013-09-10 03:08:00,
2013-09-09 23:23:00,79.1,75.0,30.03,ENE,61,0.0,3.0,87,0.00,,,0.00,weatherlink.com 1.10,2013-09-10 03:23:00,
2013-09-09 23:38:00,78.9,75.0,30.02,ENE,61,0.0,3.0,88,0.00,,,0.00,weatherlink.com 1.10,2013-09-10 03:38:00,
2013-09-09 23:53:00,78.7,75.0,30.02,ENE,61,0.0,1.0,89,0.00,,,0.00,weatherlink.com 1.10,2013-09-10 03:53:00,